Regional Weather Roundup
Issued by NWS

Home | Current Version | Previous Version | Graphics & Text | Print | Product List | Glossary On
Versions: 1 2 3 4 5 6 7 8 9 10 11 12 13 14 15 16 17 18 19 20 21 22 23 24 25 26 27 28 29 30 31 32 33 34 35 36 37 38 39 40 41 42 43 44 45 46 47 48 49 50
000
ASUS43 KLOT 010703
RWRIL

ILLINOIS REGIONAL WEATHER ROUNDUP
NATIONAL WEATHER SERVICE CHICAGO/ROMEOVILLE IL
100 AM CST WED MAR 01 2017

NOTE: "FAIR" INDICATES FEW OR NO CLOUDS BELOW 12,000 FEET WITH NO
SIGNIFICANT WEATHER AND/OR OBSTRUCTIONS TO VISIBILITY.

* THESE STATIONS ARE NOT UNDER NWS QUALITY CONTROL. THEY ALSO MAY NOT
  REPORT WEATHER SUCH AS PRECIPITATION OR FOG.

ILZ001-002-007-009-015-016-024-010800-
NORTHWEST ILLINOIS

CITY           SKY/WX    TMP DP  RH WIND       PRES   REMARKS
MOLINE         CLOUDY    49  46  90 SW6       29.50R
STERLING*      CLOUDY    49  48  97 CALM      29.49R FOG
$$

ILZ003-004-008-010-011-017-018-010800-
NORTH CENTRAL ILLINOIS

CITY           SKY/WX    TMP DP  RH WIND       PRES   REMARKS
ROCKFORD       CLOUDY    47  46  97 S3        29.46F FOG
FREEPORT*      CLOUDY    44  43  98 N7        29.47F FOG
ROCHELLE*      CLOUDY    49  47  96 CALM      29.47S
DE KALB*       CLOUDY    49  49  97 CALM      29.48R FOG
PERU*          CLOUDY    50  49  95 SW6       29.50R
$$

ILZ005-006-012>014-019>023-010800-
NORTHEAST ILLINOIS

CITY           SKY/WX    TMP DP  RH WIND       PRES   REMARKS
CHICAGO-OHARE  CLOUDY    54  52  93 S6        29.46F
CHICAGO-MIDWAY CLOUDY    53  51  93 S5        29.47F
AURORA         CLOUDY    50  48  93 SW6       29.47R
LANSING*       CLOUDY    53  53 100 CALM      29.47F
JOLIET*        CLOUDY    54  53  97 SW6       29.48F
WAUKEGAN       CLOUDY    46  44  93 NE7       29.48R FOG
DUPAGE AIRPORT CLOUDY    50  48  93 CALM      29.46R
KANKAKEE*      CLOUDY    54  53  97 S12       29.50S
WHEELING       CLOUDY    51  51 100 CALM      29.48S
MORRIS*        CLOUDY    53  51  93 W5        29.48S
ROMEOVILLE*    CLOUDY    52  52 100 SW8       29.48S
NORTHERLY ISL    N/A     52  50  93 SW5         N/A
$$

LMZ740>746-010800-
SOUTHERN LAKE MICHIGAN

STATION/POSITION SKY/WX   TEMP    WIND        PRES    VSBY  WAVE
                          AIR SEA DIR/SP/G                  HT/PER
                          (F)     (DEG/KT/KT) (MB)    (MI)  (FT/S)
HARRISON CRIB              47     190/ 15/ 19   N/A
BURNHAM HARBOR             51     230/  3/ 12   N/A
CALUMET HARBOR             52     140/  5/ 10  997.4F
BURNS HARBOR               50     130/  8/ 10  998.6F
MICHIGAN CITY              49     170/  6/  7   N/A
$$

ILZ025>027-034>036-040-047-049-050-058-095>099-010800-
WEST-CENTRAL ILLINOIS

CITY           SKY/WX    TMP DP  RH WIND       PRES   REMARKS
QUINCY         LGT RAIN  53  52  96 NW8       29.55F FOG
GALESBURG*     MOCLDY    51  49  92 W7        29.52F
MACOMB*        CLOUDY    53  51  94 SW6       29.57F
JACKSONVILLE*  CLOUDY    56  50  81 SW5       29.53F
PITTSFIELD*    RAIN      56  51  85 W9        29.54F
$$

ILZ028>032-037-038-041>044-048-051>054-059>061-010800-
CENTRAL ILLINOIS

CITY           SKY/WX    TMP DP  RH WIND       PRES   REMARKS
PONTIAC        CLOUDY    57  53  89 SW20      29.51R
BLOOMINGTON    CLOUDY    56  50  80 W18       29.53S
DECATUR        LGT RAIN  56  50  80 W16G28    29.58F
PEORIA         LGT RAIN  56  52  86 SW12      29.52S
LACON*         CLOUDY    55  53  94 SW8       29.50R
LINCOLN*       LGT RAIN  59  51  73 W13G20    29.56S
SPRINGFIELD    LGT RAIN  59  51  75 W14       29.55F
TAYLORVILLE    TSTM      55  51  87 W7        29.59F
$$

ILZ033-039-045-046-055>057-062-063-010800-
EAST-CENTRAL ILLINOIS

CITY           SKY/WX    TMP DP  RH WIND       PRES   REMARKS
CHAMPAIGN      TSTM      54  52  93 W18       29.58R FOG
RANTOUL*       TSTM      56  54  94 SW15G21   29.56F
MATTOON        MOCLDY    65  63  93 S17G25    29.53F
PARIS*         CLOUDY    64  61  91 S25G32    29.55S
$$

ILZ079-100>102-010800-
SOUTHWEST ILLINOIS

CITY           SKY/WX    TMP DP  RH WIND       PRES   REMARKS
ALTON          CLOUDY    62  45  53 NW18G29   29.59R
BELLEVILLE     CLOUDY    67  66  99 VRB5      29.54F
CAHOKIA*       MOCLDY    69  61  75 SW8       29.53F
SPARTA*        CLOUDY    68  63  83 S12G21    29.59F
$$

ILZ064>066-069>071-074>076-080>082-084>086-088>090-092>094-010800-
SOUTH-CENTRAL ILLINOIS

CITY           SKY/WX    TMP DP  RH WIND       PRES   REMARKS
CARBONDALE     CLOUDY    69  64  84 SW26G32   29.63F
CAIRO*         CLOUDY    70  63  79 S20G36    29.69F
EFFINGHAM*     MOCLDY    68  64  86 S15G25    29.58F
MARION         CLOUDY    70  68  94 SW23G29   29.65F
MT. VERNON     CLOUDY    68  63  84 S17G29    29.60F
CENTRALIA*     MOCLDY    67  64  87 S20G26    29.57F
SALEM*         MOCLDY    69  62  78 S18G28    29.57F
METROPOLIS*    CLOUDY    68  64  87 S16G24    29.70F
$$

ILZ067-068-072-073-078-083-087-091-010800-
SOUTHEAST ILLINOIS

CITY           SKY/WX    TMP DP  RH WIND       PRES   REMARKS
LAWRENCEVILLE  CLOUDY    66  60  81 SW18      29.61F
FLORA*         CLOUDY    68  62  80 S22G28    29.59F
FAIRFIELD*     CLOUDY    67  63  86 S10       29.61F
HARRISBURG*    CLOUDY    70  63  79 SW20G30   29.66F
ROBINSON*      CLOUDY    65  61  87 SW20G25   29.59F
$$

ABBREVIATIONS USED IN REMARKS
   TC - TEMPERATURE IN CELSIUS
  WCI - WIND CHILL INDEX
   HX - HEAT INDEX
  VSB - VISIBILITY
$$





USA.gov is the U.S. government's official web portal to all federal, state and local government web resources and services.